Wind_Speed
15 13 12 14 14 15 16 16 17 18 17 17 17 19 20 18 17 15 14 14 15 15 15 16 16 15 15 15 15 15 13 11 12 18 24 30 37 43
14 13 14 14 14 14 15 16 17 17 16 17 16 17 18 16 15 14 14 15 15 16 16 17 17 17 16 15 15 15 15 14 12 12 16 22 28 35
13 14 14 14 14 15 15 15 16 16 16 16 15 16 17 16 16 16 15 15 16 17 18 19 18 19 19 17 17 16 15 15 14 13 12 15 22 30
13 15 13 14 14 15 15 16 16 15 15 15 15 16 17 15 13 13 15 16 18 20 21 22 22 21 21 21 20 18 17 16 16 14 14 14 16 22
14 14 13 14 14 14 15 16 15 15 15 14 13 13 14 15 16 15 17 19 21 22 24 24 24 24 23 23 22 21 20 20 18 17 16 16 17 19
15 13 13 13 14 14 15 15 14 15 15 15 11 10 12 13 14 17 20 22 23 24 26 26 25 25 24 22 22 23 23 23 21 20 19 18 18 20
15 13 14 13 14 14 15 15 15 15 14 13 12 11 13 14 16 18 20 23 24 28 28 26 24 24 23 22 20 20 20 22 24 24 23 22 21 22
15 14 14 13 15 14 15 15 15 16 15 13 14 15 15 17 19 21 22 23 24 27 26 27 27 27 27 26 25 22 21 21 21 21 24 26 25 25
15 15 14 15 14 13 14 14 15 15 15 15 15 15 16 18 19 22 25 27 29 26 26 27 28 29 28 28 27 26 25 23 24 24 23 23 26 27
17 14 15 15 13 14 14 13 14 14 15 16 16 16 17 18 18 21 24 29 30 29 28 27 28 28 29 29 29 29 27 25 24 24 26 26 26 27
16 15 16 14 14 14 14 14 15 15 16 16 17 17 17 18 20 23 26 28 28 29 29 28 28 30 29 30 28 29 30 29 27 25 24 26 27 27
16 17 16 14 14 14 14 15 15 16 18 18 18 19 19 20 21 24 26 27 29 29 28 27 27 27 28 29 31 29 29 29 29 28 26 26 26 27
18 17 16 15 15 15 15 15 16 17 18 18 18 19 21 21 22 25 27 28 29 29 27 27 27 27 27 27 28 30 28 27 28 27 27 27 27 27
19 17 16 16 16 16 16 16 17 18 19 19 18 19 21 23 24 26 27 27 28 27 26 26 27 27 27 27 27 26 28 27 27 28 27 26 26 27
18 18 16 17 17 17 16 18 19 19 19 19 19 20 21 22 25 26 27 27 27 26 26 25 26 27 28 28 28 29 28 27 26 27 28 27 24 23
18 17 18 19 19 18 17 18 19 20 21 20 20 21 21 23 24 25 26 27 26 27 26 25 26 27 29 28 28 28 29 30 28 27 27 29 26 25
20 18 19 20 20 19 19 19 20 21 21 21 21 21 22 23 24 26 26 26 25 24 24 25 27 28 30 31 30 29 29 29 30 29 26 26 28 26
18 19 20 21 21 20 20 20 20 21 21 21 21 21 22 24 25 26 26 26 25 25 24 24 25 26 28 31 33 33 29 29 30 29 29 27 26 27
20 20 20 21 22 21 21 21 21 22 21 21 22 22 23 25 26 26 27 27 27 26 26 26 27 28 27 27 28 33 33 29 28 26 26 26 26 26
20 20 22 23 23 23 22 22 23 23 22 22 22 23 24 25 26 27 27 27 27 27 27 28 29 30 30 30 29 29 32 32 30 29 27 24 25 25
23 22 23 24 24 23 23 23 24 23 22 22 22 23 24 26 26 27 27 27 28 28 28 28 29 30 30 30 29 28 29 32 33 31 31 29 25 23
24 24 25 24 24 24 25 25 25 24 23 23 23 24 25 26 27 26 27 28 28 28 28 28 29 30 30 30 29 28 27 27 30 31 30 32 32 30
26 26 25 25 25 25 26 26 24 23 23 24 24 24 25 26 26 26 26 28 28 27 27 28 28 29 30 29 30 29 29 28 27 25 28 28 29 30
Wind_Direction
289 296 304 302 304 303 304 308 310 310 313 312 314 311 312 314 313 317 324 331 336 336 339 342 346 351 351 353 353 353 341 320 291 268 255 245 243 243
289 300 299 298 298 298 305 309 310 309 313 313 316 314 311 313 317 327 332 336 341 342 343 344 346 348 349 350 349 347 346 344 331 302 270 252 246 242
293 294 294 293 294 302 306 309 308 309 314 314 317 318 316 318 323 329 335 342 345 345 342 343 343 343 342 343 344 342 341 337 334 328 307 276 255 247
289 287 286 289 295 301 306 309 309 311 312 315 319 322 319 319 320 328 336 342 344 342 340 338 338 336 334 334 334 334 334 332 331 325 318 304 287 267
280 279 279 285 292 299 305 309 311 311 310 311 314 319 318 320 325 332 338 340 338 337 335 333 332 329 329 327 326 325 325 323 322 320 316 306 301 290
271 271 275 283 291 298 304 307 310 309 309 307 309 315 314 314 317 325 331 330 327 328 329 328 327 327 326 326 323 321 319 317 314 312 308 305 300 295
263 266 272 279 286 294 302 306 310 309 307 307 309 311 310 308 309 312 315 319 322 326 328 330 330 331 329 328 327 324 320 316 313 311 309 303 298 294
256 261 267 275 281 293 300 307 311 309 307 305 307 309 307 304 307 310 312 315 320 327 329 331 332 332 331 329 328 327 326 321 317 312 308 305 301 295
256 258 264 269 277 288 298 307 307 304 304 303 304 307 306 306 308 314 319 322 326 329 334 334 333 332 331 330 326 323 321 320 318 315 312 307 303 299
252 256 261 264 271 282 296 303 302 303 301 301 303 306 306 309 312 316 321 325 329 334 337 335 333 332 330 329 327 324 320 314 312 311 309 308 305 302
247 252 255 259 267 281 294 299 303 307 304 303 305 308 311 314 319 322 326 328 330 333 335 333 333 333 332 329 327 326 322 318 313 308 306 303 302 301
245 248 252 255 264 278 289 297 304 307 308 309 309 312 315 318 320 322 327 330 333 333 332 333 333 332 333 334 331 329 325 318 313 309 306 303 299 298
247 249 248 251 263 275 286 294 302 305 308 309 311 314 316 317 322 326 330 332 333 331 332 332 333 334 333 332 330 329 327 322 313 307 306 303 300 296
247 249 248 253 262 273 283 293 298 304 307 307 310 314 316 319 324 327 329 330 329 329 331 331 331 331 331 330 327 326 325 325 323 317 310 307 304 301
246 248 251 254 260 268 280 289 296 303 305 308 311 313 315 318 322 325 327 328 328 330 331 330 328 327 328 329 328 325 323 321 321 320 317 313 308 299
246 249 253 254 258 266 276 285 294 301 305 308 310 312 314 317 321 324 326 328 328 327 327 326 326 326 327 327 327 326 325 323 322 321 319 316 316 313
246 252 252 253 258 266 274 284 292 299 303 306 308 310 313 316 319 321 323 324 323 321 322 324 324 324 323 323 325 324 323 322 321 320 317 315 312 311
248 248 250 253 259 265 273 282 290 297 300 303 307 310 313 315 317 319 321 321 320 319 319 320 321 321 322 321 320 319 321 320 318 317 315 313 311 309
247 249 251 256 261 266 272 280 287 294 296 301 306 309 312 313 315 317 318 318 317 316 318 319 319 317 316 315 315 314 316 316 312 313 314 312 311 310
248 249 251 254 259 264 272 279 287 292 295 300 304 308 310 311 313 314 315 315 313 314 316 316 317 317 316 316 316 315 314 316 317 316 316 315 315 315
245 248 252 255 260 266 273 279 286 290 293 299 304 307 307 309 311 311 313 311 311 313 313 315 315 314 314 316 319 320 319 317 318 317 315 314 312 310
246 247 253 257 261 267 273 278 284 287 292 298 302 304 305 307 308 309 310 309 310 311 311 312 313 313 314 315 316 316 316 316 317 318 318 317 317 315
245 250 255 259 261 264 270 277 282 285 291 296 300 302 304 305 305 307 308 307 308 309 310 311 311 312 313 316 317 317 317 317 316 316 317 317 315 315
Height
3047 3045 3043 3042 3042 3041 3040 3038 3037 3035 3032 3030 3027 3025 3022 3019 3017 3014 3011 3008 3004 3001 2997 2993 2989 2985 2981 2977 2974 2971 2968 2966 2965 2964 2965 2968 2971 2974
3041 3039 3038 3038 3038 3037 3036 3034 3033 3031 3028 3026 3023 3021 3019 3017 3014 3011 3008 3005 3002 2998 2995 2991 2987 2983 2979 2975 2972 2969 2966 2963 2961 2960 2960 2960 2962 2965
3035 3036 3035 3034 3034 3033 3032 3030 3029 3028 3024 3023 3020 3018 3016 3013 3011 3008 3005 3002 3000 2996 2993 2989 2985 2981 2977 2973 2969 2966 2963 2961 2959 2956 2955 2954 2955 2956
3031 3032 3031 3031 3029 3028 3028 3027 3026 3023 3021 3019 3017 3014 3013 3011 3009 3006 3003 3000 2997 2994 2990 2986 2982 2978 2974 2969 2966 2962 2959 2956 2954 2952 2951 2950 2948 2948
3028 3028 3027 3027 3026 3024 3024 3023 3021 3020 3018 3016 3014 3012 3010 3008 3006 3004 3001 2997 2994 2991 2987 2983 2978 2973 2969 2965 2961 2958 2955 2952 2950 2948 2946 2945 2944 2943
3024 3023 3023 3022 3023 3021 3020 3019 3018 3016 3015 3013 3010 3009 3008 3007 3005 3002 2998 2995 2992 2988 2983 2978 2974 2969 2965 2961 2957 2953 2950 2947 2945 2943 2941 2939 2938 2937
3019 3018 3018 3018 3019 3018 3017 3015 3014 3012 3011 3009 3008 3005 3004 3003 3002 3000 2997 2993 2989 2984 2977 2973 2969 2964 2960 2957 2954 2951 2948 2944 2940 2938 2936 2934 2932 2931
3013 3013 3014 3014 3015 3014 3013 3011 3010 3009 3007 3005 3004 3003 3000 2998 2997 2996 2993 2990 2986 2980 2973 2967 2962 2958 2954 2951 2948 2946 2943 2940 2938 2935 2932 2929 2927 2925
3008 3009 3009 3010 3011 3010 3009 3007 3007 3005 3003 3002 3001 2999 2997 2994 2992 2990 2987 2983 2978 2974 2968 2962 2957 2953 2949 2946 2942 2938 2936 2934 2931 2929 2927 2925 2922 2919
3003 3003 3004 3005 3006 3006 3005 3004 3004 3002 3000 2999 2997 2995 2993 2990 2988 2985 2982 2977 2971 2966 2961 2957 2952 2948 2944 2941 2936 2932 2930 2928 2926 2923 2920 2918 2917 2915
2996 2998 3000 2999 3001 3001 3000 3000 2999 2998 2996 2995 2993 2990 2987 2986 2983 2980 2977 2972 2966 2961 2956 2952 2948 2942 2939 2935 2932 2927 2923 2919 2918 2917 2915 2912 2909 2907
2991 2993 2994 2995 2996 2996 2996 2995 2994 2993 2992 2990 2987 2984 2982 2981 2978 2975 2971 2966 2961 2956 2952 2948 2943 2940 2936 2929 2925 2923 2919 2914 2911 2909 2907 2906 2903 2901
2987 2987 2988 2990 2991 2991 2991 2991 2990 2989 2987 2985 2983 2980 2977 2975 2973 2969 2965 2960 2955 2952 2947 2943 2939 2935 2932 2928 2923 2917 2916 2911 2907 2904 2900 2898 2896 2894
2981 2981 2983 2985 2986 2987 2986 2985 2985 2984 2982 2980 2978 2975 2972 2969 2967 2963 2959 2956 2952 2948 2943 2939 2935 2931 2928 2924 2920 2917 2911 2907 2903 2899 2896 2892 2889 2886
2975 2976 2977 2979 2981 2982 2981 2980 2980 2979 2977 2975 2972 2970 2967 2964 2961 2958 2954 2951 2946 2942 2938 2935 2931 2927 2924 2920 2916 2911 2908 2904 2900 2895 2890 2887 2884 2882
2970 2971 2973 2975 2976 2977 2976 2975 2975 2974 2972 2969 2967 2964 2962 2959 2956 2953 2949 2945 2940 2936 2933 2930 2926 2922 2918 2916 2912 2907 2902 2898 2895 2891 2887 2882 2879 2876
2963 2965 2968 2969 2970 2971 2970 2970 2969 2968 2966 2964 2961 2959 2956 2954 2951 2948 2944 2941 2937 2934 2929 2925 2920 2917 2913 2909 2906 2903 2899 2895 2890 2886 2883 2879 2874 2871
2958 2960 2962 2963 2964 2964 2964 2964 2963 2962 2960 2958 2955 2953 2951 2948 2945 2942 2938 2935 2932 2928 2924 2921 2918 2914 2909 2903 2900 2896 2894 2890 2885 2881 2877 2874 2870 2866
2953 2955 2956 2957 2958 2958 2958 2958 2957 2956 2954 2952 2950 2947 2945 2942 2939 2936 2933 2929 2926 2922 2918 2915 2912 2909 2906 2902 2898 2890 2887 2884 2881 2877 2872 2868 2864 2860
2947 2948 2950 2951 2952 2952 2952 2952 2951 2949 2948 2946 2944 2942 2939 2936 2933 2930 2927 2924 2920 2916 2912 2909 2905 2902 2899 2895 2891 2887 2880 2876 2873 2870 2867 2863 2858 2854
2940 2941 2943 2944 2945 2945 2945 2945 2944 2943 2941 2939 2938 2936 2933 2930 2927 2924 2921 2917 2914 2910 2907 2903 2900 2896 2893 2889 2885 2881 2876 2869 2865 2861 2858 2855 2852 2850
2933 2935 2936 2937 2937 2938 2938 2938 2938 2936 2935 2933 2931 2929 2926 2923 2921 2918 2914 2911 2908 2905 2901 2897 2894 2890 2886 2882 2879 2875 2872 2867 2860 2855 2852 2847 2842 2839
2926 2928 2928 2929 2930 2931 2931 2931 2930 2929 2928 2926 2924 2922 2920 2917 2914 2911 2908 2904 2901 2898 2894 2891 2888 2884 2880 2876 2872 2868 2865 2861 2857 2854 2847 2843 2838 2833